Fresno Yosemite International Airport

Airport
ICAO code: 
KFAT
Summary
ICAO Region: 
NAM
Territory: 
Location: 
Fresno, California,
Elevation: 
336 ft
Coordinates: 
Aerial View: 
36° 46' 34.084" N, 119° 43' 4.451" W
Airport LOS: 
Parallel Runway Operation
Metar
Observation
KFAT 241553Z 29003KT 6SM HZ CLR 04/02 A3020 RMK AO2 SLP225 T00440017 $
Station
Fresno, Fresno Air Terminal
Date/Time
2022-01-24 15:53:00
Wind direction
290°
Wind speed
03 kts
Lowest cloud amount
n/a
Temperature
4.4°C
Dew point
1.7°C
Humidity
82%
Weather condition
haze

Description

Fresno Yosemite International Airport, formerly known as Fresno Air Terminal, is a joint civil-military (ANG) airport located in eastern Fresno, in Fresno County, California

Climatology

Fresno is marked by a semi-arid climate (Köppen climate classification BSh), with mild, moderately wet winters and hot and dry summers, thus displaying some Mediterranean (Köppen climate classification CSa) characteristics.

Runways

Designator Length Width Surface Rops
11R/29L 2196 30 ASP Yes/Yes
11L/29R 2809 46 ASP Yes/Yes
Airport map: 
Aerial View: 

SKYbrary Partners:

Safety knowledge contributed by: